FLOCK 4BE 24

导读 | 星芒AI

FLOCK 4BE 24 是由 Planet 公司发射的一颗地球观测卫星,属于其 Flock 系列星座的一部分。该卫星主要用于高分辨率光学成像,支持全球范围内的土地利用监测、环境研究和灾害评估等应用。Flock 系列卫星体积小、成本低,具备快速重访能力,可提供频繁更新的地表图像。FLOCK 4BE 24 通常与其他卫星协同工作,增强数据获取效率和覆盖范围,为政府、科研机构和商业用户提供实时遥感服务。

基本信息
目录编号:
60505
目录名称:
FLOCK 4BE 24
国际标识:
2024-149AP
轨道中心:
EARTH
卫星名称:
FLOCK 4BE 24
卫星全名:
FLOCK 4BE 24
卫星状态:
在轨 (已飞行432 天)
发射日期:
2024-08-16 UTC
国别 :
美国 (US)
星等 :
--
轨道信息
数据来源 国际轨道数据
星历时间: 2025-10-22T12:52:43+0800
9小时前
查看轨道信息
半长轴: 6845.244km
偏心率: 0.0005341
轨道倾角: 97.395°
近地点辐角 67.400°
升交点赤经 13.217°
平近点角 292.781°
近地点: 463.452km
远地点: 470.766km
周期: 93.938分钟
每日圈数: 15.329198
详细信息
使用方式:
暂无
2D轨道图
3D轨道图
轨道高度分析图
轨道倾角分析图
轨道综合分析图
查看轨道综合分析图